Tracking 30685 objects as of 18-Jun-2025
HD Live streaming from Space Station
objects crossing your sky now

COSMOS 1275 DEB

Track COSMOS 1275 DEB now!
10-day predictions


NORAD ID: 42209
Int'l Code: 1981-053TZ
Perigee: 902.0 km
Apogee: 981.8 km
Inclination: 82.9 °
Period: 103.7 minutes
Semi major axis: 7312 km
RCS: Unknown
Launch date: June 4, 1981
Source: Commonwealth of Independent States (former USSR) (CIS)
Launch site: PLESETSK MISSILE AND SPACE COMPLEX (PKMTR)

Note: This is SATELLITE DEBRIS
Your satellite tracking list
Your tracking list is empty




NASA's NSSDC Master Catalog

Two Line Element Set (TLE):
1 42209U 81053TZ  25168.16786590  .00000734  00000-0  59383-3 0  9993
2 42209  82.8758 312.6372 0054602 196.4217 163.5180 13.88248254585005
Source of the keplerian elements: AFSPC